CTN2738 LDDU-LDZA

Flight info

Callsign CTN2738
Flight time 0h 42m
Altitude 36000
Route AMUG1W AMUGO DCT SIRMI DCT RUDIK RUDI2Y
Aircraft A319/M-SDE3FGHIRWY/LB1

Departure

Time 2026-05-07 08:05
Airport Dubrovnik Ruđer Bošković Airport (LDDU)

Arrival

Time 2026-05-07 08:47
Airport Zagreb Franjo Tuđman International Airport (LDZA)
Time Latitude Longitude Altitude Speed Heading
2026-05-07 07:47 42.56209 18.25678 520 ft 0 kts 298°
2026-05-07 07:59 42.56198 18.25703 522 ft 3 kts 298°
2026-05-07 07:59 42.56187 18.25731 523 ft 3 kts 298°
2026-05-07 07:59 42.56179 18.25751 522 ft 0 kts 311°
2026-05-07 07:59 42.56179 18.25752 522 ft 0 kts 26°
2026-05-07 08:00 42.56179 18.25771 522 ft 0 kts 26°
2026-05-07 08:01 42.56218 18.25797 522 ft 15 kts 27°
2026-05-07 08:01 42.56308 18.25859 523 ft 9 kts 358°
2026-05-07 08:02 42.56360 18.25788 524 ft 11 kts 302°
2026-05-07 08:02 42.56401 18.25685 524 ft 13 kts 298°
2026-05-07 08:02 42.56693 18.24945 504 ft 16 kts 298°
2026-05-07 08:02 42.56749 18.24805 504 ft 17 kts 298°
2026-05-07 08:03 42.56794 18.24707 506 ft 2 kts 313°
2026-05-07 08:03 42.56823 18.24680 507 ft 20 kts 340°
2026-05-07 08:04 42.56934 18.24768 504 ft 21 kts 82°
2026-05-07 08:04 42.56911 18.24867 504 ft 8 kts 117°
2026-05-07 08:04 42.56753 18.25266 508 ft 91 kts 118°
2026-05-07 08:04 42.56330 18.26332 584 ft 156 kts 117°
2026-05-07 08:05 42.55801 18.27625 1339 ft 165 kts 118°
2026-05-07 08:05 42.55258 18.29002 2309 ft 171 kts 118°
2026-05-07 08:05 42.54691 18.30468 3132 ft 186 kts 119°
2026-05-07 08:05 42.54095 18.31996 3930 ft 199 kts 121°
2026-05-07 08:06 42.53184 18.33478 4678 ft 213 kts 148°
2026-05-07 08:06 42.51770 18.34173 5408 ft 227 kts 178°
2026-05-07 08:06 42.50237 18.33774 6299 ft 234 kts 208°
2026-05-07 08:06 42.49038 18.32351 7358 ft 237 kts 231°
2026-05-07 08:07 42.48053 18.30523 8068 ft 255 kts 234°
2026-05-07 08:07 42.47044 18.28482 8774 ft 272 kts 242°
2026-05-07 08:07 42.46588 18.25971 9707 ft 282 kts 269°
2026-05-07 08:07 42.47029 18.23460 10754 ft 289 kts 293°
2026-05-07 08:08 42.48189 18.21246 11735 ft 297 kts 307°
2026-05-07 08:08 42.49539 18.19217 12617 ft 304 kts 309°
2026-05-07 08:08 42.50977 18.17141 13509 ft 309 kts 309°
2026-05-07 08:08 42.52427 18.15050 14364 ft 314 kts 310°
2026-05-07 08:09 42.54071 18.13049 15221 ft 321 kts 317°
2026-05-07 08:09 42.55804 18.11181 16061 ft 325 kts 317°
2026-05-07 08:09 42.57589 18.09279 16909 ft 328 kts 318°
2026-05-07 08:09 42.59383 18.07352 17590 ft 335 kts 317°
2026-05-07 08:10 42.61233 18.05340 17942 ft 352 kts 317°
2026-05-07 08:10 42.63189 18.03200 18245 ft 370 kts 317°
2026-05-07 08:10 42.65242 18.00944 18578 ft 386 kts 317°
2026-05-07 08:10 42.67316 17.98662 19143 ft 393 kts 317°
2026-05-07 08:11 42.69448 17.96318 19808 ft 397 kts 317°
2026-05-07 08:11 42.71572 17.93978 20465 ft 400 kts 317°
2026-05-07 08:11 42.73756 17.91566 21074 ft 405 kts 316°
2026-05-07 08:11 42.75943 17.89146 21660 ft 409 kts 316°
2026-05-07 08:12 42.78124 17.86728 22237 ft 412 kts 316°
2026-05-07 08:12 42.80357 17.84252 22812 ft 416 kts 316°
2026-05-07 08:12 42.82621 17.81738 23372 ft 420 kts 316°
2026-05-07 08:12 42.84871 17.79234 23810 ft 423 kts 316°
2026-05-07 08:13 42.87131 17.76719 23931 ft 424 kts 316°
2026-05-07 08:13 42.89425 17.74163 23935 ft 424 kts 316°
2026-05-07 08:13 42.91684 17.71647 23943 ft 424 kts 316°
2026-05-07 08:13 42.93957 17.69110 23942 ft 424 kts 316°
2026-05-07 08:14 42.96250 17.66550 23941 ft 424 kts 316°
2026-05-07 08:14 42.98535 17.63996 23939 ft 424 kts 316°
2026-05-07 08:14 43.00807 17.61455 23943 ft 424 kts 316°
2026-05-07 08:14 43.03088 17.58900 23940 ft 424 kts 316°
2026-05-07 08:15 43.05358 17.56353 23940 ft 424 kts 316°
2026-05-07 08:15 43.07618 17.53818 23941 ft 424 kts 316°
2026-05-07 08:15 43.09891 17.51265 23942 ft 424 kts 316°
2026-05-07 08:15 43.12174 17.48708 23938 ft 423 kts 317°
2026-05-07 08:16 43.14455 17.46157 23945 ft 423 kts 317°
2026-05-07 08:16 43.16704 17.43638 23946 ft 423 kts 317°
2026-05-07 08:16 43.18967 17.41095 23945 ft 423 kts 316°
2026-05-07 08:16 43.21240 17.38533 23947 ft 422 kts 316°
2026-05-07 08:17 43.23465 17.36021 23943 ft 422 kts 317°
2026-05-07 08:17 43.25693 17.33499 23945 ft 423 kts 316°
2026-05-07 08:17 43.27945 17.30935 23941 ft 423 kts 316°
2026-05-07 08:17 43.30212 17.28354 23941 ft 423 kts 316°
2026-05-07 08:18 43.32465 17.25791 23918 ft 420 kts 316°
2026-05-07 08:18 43.34671 17.23283 23493 ft 414 kts 316°
2026-05-07 08:18 43.36890 17.20756 22714 ft 413 kts 316°
2026-05-07 08:18 43.39094 17.18244 22309 ft 412 kts 316°
2026-05-07 08:19 43.41298 17.15733 21933 ft 411 kts 316°
2026-05-07 08:19 43.43470 17.13254 21562 ft 409 kts 316°
2026-05-07 08:19 43.45670 17.10746 21179 ft 406 kts 316°
2026-05-07 08:19 43.47818 17.08290 20725 ft 404 kts 316°
2026-05-07 08:20 43.49825 17.05994 20281 ft 400 kts 317°
2026-05-07 08:20 43.51989 17.03518 19827 ft 398 kts 316°
2026-05-07 08:20 43.54092 17.01110 19381 ft 395 kts 317°
2026-05-07 08:20 43.56208 16.98684 18934 ft 393 kts 317°
2026-05-07 08:21 43.58276 16.96312 18491 ft 391 kts 317°
2026-05-07 08:21 43.60365 16.93910 18068 ft 389 kts 317°
2026-05-07 08:21 43.62445 16.91518 17697 ft 387 kts 317°
2026-05-07 08:21 43.64496 16.89156 17329 ft 385 kts 317°
2026-05-07 08:22 43.66550 16.86791 16964 ft 383 kts 317°
2026-05-07 08:22 43.68568 16.84466 16603 ft 382 kts 317°
2026-05-07 08:22 43.70595 16.82128 16235 ft 379 kts 317°
2026-05-07 08:22 43.72609 16.79803 16022 ft 378 kts 317°
2026-05-07 08:23 43.74626 16.77473 16016 ft 378 kts 317°
2026-05-07 08:23 43.76642 16.75141 16014 ft 379 kts 317°
2026-05-07 08:23 43.78657 16.72807 16009 ft 379 kts 317°
2026-05-07 08:23 43.97258 16.51157 15987 ft 379 kts 317°
2026-05-07 08:24 44.08088 16.38493 15997 ft 379 kts 317°
2026-05-07 08:24 44.10079 16.36148 15996 ft 379 kts 317°
2026-05-07 08:24 44.12098 16.33783 15999 ft 380 kts 317°
2026-05-07 08:24 44.14264 16.31751 15995 ft 384 kts 330°
2026-05-07 08:25 44.16782 16.30535 15996 ft 389 kts 346°
2026-05-07 08:25 44.19515 16.30211 16003 ft 392 kts 356°
2026-05-07 08:25 44.22219 16.30213 16001 ft 392 kts 358°
2026-05-07 08:25 44.24960 16.30254 15999 ft 392 kts 358°
2026-05-07 08:26 44.30413 16.30317 15999 ft 392 kts 358°
2026-05-07 08:26 44.64493 16.30466 16004 ft 393 kts 358°
2026-05-07 08:26 44.78558 16.30442 16001 ft 394 kts 358°
2026-05-07 08:27 44.81303 16.30447 16002 ft 395 kts 358°
2026-05-07 08:27 44.84046 16.30454 15997 ft 395 kts 358°
2026-05-07 08:27 44.86776 16.30462 15993 ft 395 kts 358°
2026-05-07 08:27 44.89520 16.30470 15995 ft 395 kts 358°
2026-05-07 08:28 44.92278 16.30477 15988 ft 395 kts 358°
2026-05-07 08:28 44.95021 16.30483 15982 ft 395 kts 358°
2026-05-07 08:28 44.97761 16.30485 15978 ft 395 kts 357°
2026-05-07 08:28 45.00503 16.30329 15987 ft 394 kts 353°
2026-05-07 08:29 45.03199 16.29962 15987 ft 393 kts 351°
2026-05-07 08:29 45.05928 16.29524 15989 ft 394 kts 351°
2026-05-07 08:29 45.08622 16.29082 15975 ft 392 kts 351°
2026-05-07 08:29 45.11303 16.28966 15604 ft 389 kts
2026-05-07 08:30 45.13979 16.29435 14948 ft 390 kts
2026-05-07 08:30 45.16634 16.30047 14352 ft 388 kts
2026-05-07 08:30 45.19257 16.30646 14050 ft 377 kts
2026-05-07 08:30 45.21806 16.31198 13825 ft 364 kts
2026-05-07 08:31 45.24297 16.31712 13614 ft 352 kts
2026-05-07 08:31 45.26648 16.32180 13415 ft 341 kts
2026-05-07 08:31 45.28964 16.32632 13168 ft 332 kts
2026-05-07 08:31 45.31238 16.33068 12781 ft 328 kts
2026-05-07 08:32 45.33514 16.33503 12354 ft 326 kts
2026-05-07 08:32 45.35736 16.33924 11930 ft 324 kts
2026-05-07 08:32 45.37951 16.34343 11517 ft 322 kts
2026-05-07 08:32 45.40153 16.34758 11113 ft 318 kts
2026-05-07 08:33 45.42357 16.35176 10688 ft 316 kts
2026-05-07 08:33 45.44486 16.35580 10278 ft 313 kts
2026-05-07 08:33 45.46648 16.35989 9864 ft 311 kts
2026-05-07 08:33 45.48795 16.36396 9428 ft 308 kts
2026-05-07 08:34 45.50899 16.36795 9037 ft 305 kts
2026-05-07 08:34 45.52660 16.37128 8672 ft 304 kts
2026-05-07 08:34 45.54747 16.37527 8262 ft 301 kts
2026-05-07 08:34 45.56828 16.37924 7847 ft 299 kts
2026-05-07 08:35 45.58870 16.38312 7424 ft 297 kts
2026-05-07 08:35 45.60876 16.38691 7027 ft 295 kts
2026-05-07 08:35 45.62908 16.39079 6638 ft 292 kts
2026-05-07 08:35 45.64893 16.39460 6380 ft 284 kts
2026-05-07 08:36 45.66819 16.39831 6198 ft 275 kts
2026-05-07 08:36 45.68672 16.40188 6017 ft 266 kts
2026-05-07 08:36 45.70487 16.40535 5844 ft 257 kts
2026-05-07 08:36 45.72242 16.40871 5576 ft 254 kts
2026-05-07 08:37 45.73990 16.41207 5257 ft 253 kts
2026-05-07 08:37 45.75722 16.41539 4948 ft 252 kts
2026-05-07 08:37 45.77465 16.41872 4714 ft 246 kts
2026-05-07 08:37 45.79134 16.42193 4538 ft 240 kts
2026-05-07 08:38 45.80798 16.42576 4128 ft 245 kts 14°
2026-05-07 08:38 45.82307 16.43599 3975 ft 238 kts 35°
2026-05-07 08:38 45.83513 16.45183 3838 ft 231 kts 46°
2026-05-07 08:38 45.84568 16.46859 3698 ft 224 kts 47°
2026-05-07 08:39 45.85701 16.48318 3509 ft 217 kts 22°
2026-05-07 08:39 45.87136 16.48468 3479 ft 207 kts 337°
2026-05-07 08:39 45.88301 16.47330 3478 ft 203 kts 306°
2026-05-07 08:39 45.88897 16.45543 3474 ft 200 kts 279°
2026-05-07 08:40 45.89086 16.43545 3477 ft 201 kts 275°
2026-05-07 08:40 45.89250 16.41555 3477 ft 202 kts 275°
2026-05-07 08:40 45.89434 16.39578 3475 ft 202 kts 276°
2026-05-07 08:40 45.89637 16.37580 3478 ft 202 kts 276°
2026-05-07 08:41 45.89853 16.35573 3476 ft 202 kts 277°
2026-05-07 08:41 45.90070 16.33595 3478 ft 203 kts 277°
2026-05-07 08:41 45.90276 16.31582 3477 ft 203 kts 271°
2026-05-07 08:41 45.89965 16.29651 3464 ft 199 kts 236°
2026-05-07 08:42 45.88983 16.28266 3479 ft 201 kts 218°
2026-05-07 08:42 45.87850 16.27088 3480 ft 201 kts 218°
2026-05-07 08:42 45.86767 16.25801 3472 ft 201 kts 223°
2026-05-07 08:42 45.85778 16.24383 3325 ft 200 kts 227°
2026-05-07 08:43 45.84837 16.22933 3063 ft 198 kts 227°
2026-05-07 08:43 45.83933 16.21533 2794 ft 186 kts 227°
2026-05-07 08:43 45.83077 16.20222 2621 ft 172 kts 226°
2026-05-07 08:43 45.82289 16.19022 2382 ft 162 kts 226°
2026-05-07 08:44 45.81538 16.17882 2179 ft 151 kts 225°
2026-05-07 08:44 45.80845 16.16829 1960 ft 141 kts 225°
2026-05-07 08:44 45.80195 16.15842 1772 ft 133 kts 225°
2026-05-07 08:44 45.79557 16.14875 1595 ft 133 kts 225°
2026-05-07 08:45 45.78925 16.13916 1424 ft 133 kts 225°
2026-05-07 08:45 45.78285 16.12943 1248 ft 133 kts 226°
2026-05-07 08:45 45.77668 16.12009 1078 ft 132 kts 226°
2026-05-07 08:45 45.77038 16.11051 903 ft 132 kts 226°
2026-05-07 08:46 45.76409 16.10096 729 ft 132 kts 227°
2026-05-07 08:46 45.75784 16.09134 566 ft 132 kts 227°
2026-05-07 08:46 45.75150 16.08184 414 ft 133 kts 226°
2026-05-07 08:46 45.74527 16.07239 355 ft 125 kts 227°
2026-05-07 08:47 45.74023 16.06456 350 ft 74 kts 226°
2026-05-07 08:47 45.73851 16.06265 350 ft 9 kts 149°
2026-05-07 08:47 45.73796 16.06324 350 ft 1 kts 137°
2026-05-07 08:47 45.73785 16.06338 350 ft 3 kts 137°
2026-05-07 08:48 45.73768 16.06361 350 ft 1 kts 137°
2026-05-07 08:48 45.73754 16.06378 350 ft 3 kts 141°
2026-05-07 08:48 45.73726 16.06392 350 ft 5 kts 181°
2026-05-07 08:48 45.73690 16.06358 350 ft 7 kts 228°
2026-05-07 08:49 45.73650 16.06293 349 ft 10 kts 229°
2026-05-07 08:49 45.73616 16.06240 348 ft 7 kts 225°
2026-05-07 08:49 45.73579 16.06187 349 ft 8 kts 226°
2026-05-07 08:49 45.73531 16.06115 350 ft 9 kts 226°
2026-05-07 08:50 45.73477 16.06035 350 ft 11 kts 226°
2026-05-07 08:50 45.73417 16.05944 350 ft 12 kts 227°
2026-05-07 08:50 45.73367 16.05912 350 ft 8 kts 157°
2026-05-07 08:50 45.73336 16.05951 350 ft 3 kts 137°
2026-05-07 08:51 45.73333 16.05955 350 ft 0 kts 137°